| time (UTC) | temp C | wind direction | speed KPH | gust KPH | rain 1hr cm | rain 24hr cm | rain mn cm | humidity % | barometer mb |
| 20260502130702 | 14 | 0 | 4.8 | 8.0 | 0.00 | 0.08 | 0.00 | 88 | 1017.8 |
| 20260502130200 | 14 | 64 | 4.8 | 8.0 | 0.00 | 0.08 | 0.00 | 88 | 1017.6 |
| 20260502123651 | 13 | 5 | 3.2 | 9.7 | 0.00 | 0.08 | 0.00 | 91 | 1017.4 |
| 20260502123150 | 13 | 5 | 3.2 | 9.7 | 0.00 | 0.08 | 0.00 | 91 | 1017.3 |
| 20260502122651 | 13 | 332 | 3.2 | 8.0 | 0.00 | 0.08 | 0.00 | 91 | 1017.3 |
| 20260502122151 | 13 | 296 | 3.2 | 9.7 | 0.00 | 0.08 | 0.00 | 91 | 1017.1 |
| 20260502121652 | 13 | 294 | 3.2 | 9.7 | 0.00 | 0.08 | 0.00 | 91 | 1017.1 |
| 20260502121146 | 13 | 309 | 3.2 | 6.4 | 0.00 | 0.08 | 0.00 | 91 | 1017.1 |
| 20260502120646 | 13 | 309 | 1.6 | 6.4 | 0.00 | 0.08 | 0.00 | 91 | 1017.0 |
| 20260502120143 | 13 | 300 | 1.6 | 6.4 | 0.00 | 0.08 | 0.00 | 91 | 1017.0 |
| 20260502115636 | 13 | 300 | 1.6 | 6.4 | 0.00 | 0.08 | 0.00 | 91 | 1016.9 |
| 20260502115128 | 13 | 301 | 1.6 | 4.8 | 0.00 | 0.08 | 0.00 | 91 | 1016.9 |
| 20260502114625 | 13 | 300 | 1.6 | 6.4 | 0.00 | 0.08 | 0.00 | 91 | 1016.8 |
| 20260502114620 | 13 | 300 | 1.6 | 6.4 | 0.00 | 0.08 | 0.00 | 91 | 1016.9 |
| 20260502114115 | 13 | 302 | 1.6 | 6.4 | 0.00 | 0.08 | 0.00 | 91 | 1016.6 |
| 20260502113732 | 13 | 300 | 1.6 | 6.4 | 0.00 | 0.08 | 0.00 | 91 | 1016.5 |
| 20260502112608 | 13 | 300 | 3.2 | 8.0 | 0.00 | 0.08 | 0.00 | 91 | 1016.4 |
| 20260502112113 | 13 | 321 | 3.2 | 9.7 | 0.00 | 0.08 | 0.00 | 91 | 1016.1 |
| 20260502112106 | 13 | 300 | 3.2 | 9.7 | 0.00 | 0.08 | 0.00 | 91 | 1016.2 |
| 20260502111722 | 13 | 265 | 3.2 | 9.7 | 0.00 | 0.08 | 0.00 | 91 | 1016.1 |
| 20260502111218 | 13 | 292 | 1.6 | 6.4 | 0.00 | 0.08 | 0.00 | 91 | 1016.0 |
| 20260502110100 | 13 | 301 | 3.2 | 6.4 | 0.00 | 0.08 | 0.00 | 91 | 1016.1 |
| 20260502105602 | 13 | 301 | 3.2 | 8.0 | 0.00 | 0.08 | 0.00 | 91 | 1016.0 |
| 20260502105101 | 13 | 300 | 3.2 | 8.0 | 0.00 | 0.08 | 0.00 | 91 | 1015.9 |
| 20260502104601 | 13 | 286 | 3.2 | 6.4 | 0.00 | 0.08 | 0.00 | 91 | 1015.8 |
| 20260502104100 | 13 | 316 | 3.2 | 6.4 | 0.00 | 0.08 | 0.00 | 91 | 1015.7 |
| 20260502103601 | 13 | 290 | 3.2 | 6.4 | 0.00 | 0.08 | 0.00 | 92 | 1015.6 |
| 20260502103058 | 13 | 289 | 1.6 | 6.4 | 0.00 | 0.08 | 0.00 | 92 | 1015.5 |
| 20260502102601 | 13 | 282 | 1.6 | 4.8 | 0.00 | 0.08 | 0.00 | 92 | 1015.3 |
| 20260502102557 | 13 | 283 | 1.6 | 4.8 | 0.00 | 0.08 | 0.00 | 92 | 1015.3 |
| 20260502101554 | 13 | 279 | 1.6 | 4.8 | 0.00 | 0.08 | 0.00 | 92 | 1015.2 |
| 20260502101039 | 14 | 277 | 1.6 | 4.8 | 0.00 | 0.08 | 0.00 | 92 | 1015.2 |
| 20260502100539 | 14 | 275 | 1.6 | 4.8 | 0.00 | 0.08 | 0.00 | 92 | 1015.1 |
| 20260502091513 | 13 | 348 | 3.2 | 8.0 | 0.00 | 0.08 | 0.00 | 92 | 1014.7 |
| 20260502090956 | 13 | 338 | 3.2 | 8.0 | 0.00 | 0.08 | 0.00 | 92 | 1014.8 |
| 20260502090456 | 13 | 315 | 3.2 | 6.4 | 0.00 | 0.08 | 0.00 | 92 | 1014.8 |
| 20260502071359 | 14 | 0 | 3.2 | 8.0 | 0.00 | 0.08 | 0.00 | 92 | 1014.1 |
| 20260502070853 | 14 | 0 | 4.8 | 9.7 | 0.00 | 0.08 | 0.00 | 92 | 1014.1 |
| 20260502070350 | 14 | 355 | 4.8 | 9.7 | 0.00 | 0.08 | 0.00 | 91 | 1014.1 |
| 20260502065845 | 14 | 338 | 4.8 | 11.3 | 0.00 | 0.08 | 0.00 | 91 | 1014.0 |
| 20260502065336 | 14 | 351 | 4.8 | 11.3 | 0.00 | 0.08 | 0.00 | 91 | 1014.0 |
| 20260502064835 | 14 | 344 | 4.8 | 9.7 | 0.00 | 0.08 | 0.00 | 91 | 1014.0 |
| 20260502064826 | 14 | 327 | 4.8 | 14.5 | 0.00 | 0.08 | 0.00 | 91 | 1013.9 |
| 20260502063825 | 14 | 349 | 6.4 | 14.5 | 0.00 | 0.08 | 0.00 | 91 | 1014.0 |
| 20260502063325 | 14 | 325 | 4.8 | 11.3 | 0.00 | 0.08 | 0.00 | 91 | 1014.1 |
| 20260502062825 | 14 | 350 | 4.8 | 12.9 | 0.00 | 0.08 | 0.00 | 91 | 1014.1 |
| 20260502062325 | 14 | 5 | 4.8 | 12.9 | 0.00 | 0.08 | 0.00 | 91 | 1014.1 |
| 20260502061826 | 14 | 345 | 4.8 | 11.3 | 0.00 | 0.08 | 0.00 | 91 | 1014.2 |
| 20260502061324 | 14 | 331 | 4.8 | 9.7 | 0.00 | 0.08 | 0.00 | 91 | 1014.2 |
| 20260502060820 | 14 | 355 | 4.8 | 14.5 | 0.00 | 0.08 | 0.00 | 91 | 1014.2 |
| 20260502060321 | 14 | 355 | 4.8 | 14.5 | 0.00 | 0.08 | 0.00 | 91 | 1014.2 |
| 20260502055821 | 14 | 5 | 6.4 | 11.3 | 0.00 | 0.08 | 0.00 | 91 | 1014.1 |
| 20260502055321 | 14 | 351 | 6.4 | 16.1 | 0.00 | 0.08 | 0.00 | 91 | 1014.1 |
| 20260502054820 | 14 | 338 | 4.8 | 16.1 | 0.00 | 0.08 | 0.00 | 91 | 1014.1 |
| 20260502054323 | 14 | 74 | 4.8 | 9.7 | 0.00 | 0.08 | 0.00 | 92 | 1013.9 |
| 20260502053817 | 15 | 309 | 4.8 | 9.7 | 0.00 | 0.08 | 0.00 | 92 | 1013.9 |
| 20260502053317 | 15 | 36 | 4.8 | 9.7 | 0.00 | 0.08 | 0.00 | 92 | 1013.8 |
| 20260502052818 | 15 | 295 | 4.8 | 9.7 | 0.00 | 0.08 | 0.00 | 92 | 1013.8 |
| 20260502052318 | 15 | 300 | 3.2 | 9.7 | 0.00 | 0.08 | 0.00 | 92 | 1013.7 |
| 20260502051819 | 15 | 340 | 4.8 | 9.7 | 0.00 | 0.08 | 0.00 | 92 | 1013.7 |
| 20260502051320 | 15 | 12 | 4.8 | 11.3 | 0.00 | 0.08 | 0.00 | 92 | 1013.7 |
| 20260502051316 | 15 | 57 | 4.8 | 11.3 | 0.00 | 0.08 | 0.00 | 91 | 1013.6 |
| 20260502050930 | 15 | 355 | 4.8 | 11.3 | 0.00 | 0.08 | 0.00 | 91 | 1013.7 |
| 20260502045808 | 15 | 346 | 4.8 | 11.3 | 0.00 | 0.08 | 4.06 | 92 | 1013.5 |
| 20260502045311 | 15 | 309 | 4.8 | 11.3 | 0.00 | 0.08 | 4.06 | 92 | 1013.5 |
| 20260502044810 | 15 | 0 | 4.8 | 9.7 | 0.00 | 0.08 | 4.06 | 92 | 1013.4 |
| 20260502044308 | 15 | 311 | 4.8 | 16.1 | 0.00 | 0.08 | 4.06 | 92 | 1013.3 |
| 20260502043801 | 15 | 333 | 4.8 | 16.1 | 0.00 | 0.08 | 4.06 | 92 | 1013.1 |
| 20260502043256 | 15 | 355 | 6.4 | 11.3 | 0.00 | 0.08 | 4.06 | 92 | 1013.2 |
| 20260502042759 | 15 | 0 | 4.8 | 11.3 | 0.00 | 0.08 | 4.06 | 92 | 1013.1 |
| 20260502042255 | 15 | 320 | 6.4 | 11.3 | 0.00 | 0.08 | 4.06 | 92 | 1013.1 |
| 20260502041754 | 15 | 319 | 6.4 | 16.1 | 0.00 | 0.08 | 4.06 | 92 | 1012.9 |
| 20260502041255 | 15 | 355 | 4.8 | 16.1 | 0.00 | 0.08 | 4.06 | 92 | 1012.9 |
| 20260502040801 | 15 | 333 | 6.4 | 14.5 | 0.00 | 0.08 | 4.06 | 92 | 1012.9 |
| 20260502040755 | 15 | 15 | 4.8 | 11.3 | 0.00 | 0.08 | 4.06 | 92 | 1012.9 |
| 20260502035754 | 15 | 9 | 4.8 | 14.5 | 0.00 | 0.08 | 4.06 | 91 | 1012.8 |
| 20260502035250 | 15 | 345 | 6.4 | 14.5 | 0.00 | 0.08 | 4.06 | 91 | 1012.8 |
| 20260502034748 | 15 | 351 | 6.4 | 14.5 | 0.00 | 0.08 | 4.06 | 91 | 1012.7 |
| 20260502034247 | 15 | 5 | 6.4 | 16.1 | 0.00 | 0.08 | 4.06 | 91 | 1012.7 |
| 20260502033745 | 15 | 13 | 6.4 | 16.1 | 0.00 | 0.08 | 4.06 | 92 | 1012.6 |
| 20260502033247 | 15 | 12 | 6.4 | 14.5 | 0.00 | 0.08 | 4.06 | 92 | 1012.7 |
| 20260502032748 | 15 | 355 | 6.4 | 17.7 | 0.00 | 0.08 | 4.06 | 92 | 1012.6 |
| 20260502032243 | 15 | 5 | 6.4 | 17.7 | 0.00 | 0.08 | 4.06 | 92 | 1012.5 |
| 20260502031744 | 16 | 335 | 6.4 | 19.3 | 0.00 | 0.08 | 4.06 | 93 | 1012.5 |
| 20260502031242 | 16 | 298 | 4.8 | 19.3 | 0.00 | 0.08 | 4.06 | 93 | 1012.3 |
| 20260502030747 | 16 | 0 | 4.8 | 11.3 | 0.00 | 0.08 | 4.06 | 93 | 1012.1 |
| 20260502030741 | 16 | 351 | 4.8 | 11.3 | 0.00 | 0.08 | 4.06 | 93 | 1012.3 |
| 20260502025724 | 16 | 355 | 4.8 | 14.5 | 0.00 | 0.08 | 4.06 | 93 | 1012.2 |
| 20260502025233 | 16 | 355 | 4.8 | 11.3 | 0.00 | 0.08 | 4.06 | 94 | 1011.7 |
| 20260502025227 | 16 | 5 | 6.4 | 14.5 | 0.00 | 0.08 | 4.06 | 93 | 1012.1 |
| 20260502024723 | 16 | 320 | 4.8 | 11.3 | 0.00 | 0.08 | 4.06 | 93 | 1011.9 |
| 20260502023707 | 16 | 5 | 4.8 | 11.3 | 0.00 | 0.08 | 4.06 | 94 | 1011.6 |
| 20260502023208 | 16 | 0 | 4.8 | 11.3 | 0.00 | 0.08 | 4.06 | 94 | 1011.5 |
| 20260502022702 | 16 | 351 | 4.8 | 9.7 | 0.00 | 0.08 | 4.06 | 94 | 1011.5 |
| 20260502022207 | 16 | 350 | 4.8 | 9.7 | 0.00 | 0.08 | 4.06 | 94 | 1011.1 |
| 20260502022203 | 16 | 337 | 4.8 | 9.7 | 0.00 | 0.08 | 4.06 | 94 | 1011.3 |
| 20260502021157 | 16 | 351 | 4.8 | 9.7 | 0.00 | 0.08 | 4.06 | 94 | 1011.1 |
| 20260502020657 | 16 | 350 | 4.8 | 9.7 | 0.00 | 0.08 | 4.06 | 94 | 1010.9 |
| 20260502020157 | 16 | 311 | 4.8 | 8.0 | 0.00 | 0.08 | 4.06 | 94 | 1010.8 |
| 20260502015652 | 16 | 13 | 4.8 | 9.7 | 0.00 | 0.08 | 4.06 | 94 | 1010.6 |
| 20260502015150 | 16 | 295 | 4.8 | 9.7 | 0.00 | 0.08 | 4.06 | 94 | 1010.4 |
| 20260502014650 | 16 | 350 | 3.2 | 8.0 | 0.00 | 0.08 | 4.06 | 94 | 1010.3 |
| 20260502014646 | 16 | 0 | 3.2 | 8.0 | 0.00 | 0.08 | 4.06 | 94 | 1010.3 |
| 20260502013646 | 16 | 5 | 4.8 | 9.7 | 0.00 | 0.08 | 4.06 | 94 | 1010.3 |
| 20260502013140 | 16 | 355 | 4.8 | 9.7 | 0.00 | 0.08 | 4.06 | 94 | 1010.1 |
| 20260502012636 | 16 | 355 | 6.4 | 11.3 | 0.03 | 0.08 | 4.06 | 94 | 1010.2 |
| 20260502012135 | 16 | 5 | 4.8 | 11.3 | 0.03 | 0.08 | 4.06 | 94 | 1009.9 |
| 20260502011636 | 16 | 0 | 4.8 | 11.3 | 0.03 | 0.08 | 4.06 | 94 | 1010.0 |
| 20260502011140 | 16 | 9 | 6.4 | 11.3 | 0.05 | 0.08 | 4.06 | 95 | 1009.6 |
| 20260502011134 | 16 | 332 | 6.4 | 14.5 | 0.05 | 0.08 | 4.06 | 95 | 1009.7 |
| 20260502010753 | 16 | 5 | 6.4 | 16.1 | 0.08 | 0.08 | 4.06 | 95 | 1009.4 |
| 20260502010133 | 16 | 9 | 6.4 | 14.5 | 0.08 | 0.08 | 4.06 | 95 | 1009.4 |
| 20260502005129 | 16 | 293 | 4.8 | 16.1 | 0.08 | 0.08 | 4.06 | 95 | 1009.3 |
| 20260502004630 | 16 | 0 | 4.8 | 11.3 | 0.08 | 0.08 | 4.06 | 95 | 1009.0 |
| 20260502004130 | 16 | 355 | 4.8 | 11.3 | 0.08 | 0.08 | 4.06 | 95 | 1009.1 |
| 20260502003625 | 16 | 245 | 4.8 | 16.1 | 0.08 | 0.08 | 4.06 | 95 | 1009.2 |
| 20260502003124 | 16 | 350 | 6.4 | 16.1 | 0.08 | 0.08 | 4.06 | 95 | 1008.9 |
| 20260502002626 | 16 | 350 | 4.8 | 11.3 | 0.05 | 0.05 | 4.04 | 95 | 1009.2 |
| 20260502002126 | 16 | 5 | 6.4 | 11.3 | 0.05 | 0.05 | 4.04 | 95 | 1009.1 |
| 20260502001626 | 16 | 331 | 6.4 | 11.3 | 0.03 | 0.03 | 4.01 | 95 | 1009.1 |
| 20260502000221 | -17 | 0.0 | 0.0 | 0.00 | 0.00 | 3.96 | 1009.5 | ||
| 20260501233035 | 17 | 0 | 4.8 | 14.5 | 0.71 | 3.94 | 3.94 | 95 | 1008.6 |
| 20260501232536 | 17 | 317 | 6.4 | 14.5 | 0.97 | 3.94 | 3.94 | 95 | 1008.5 |
| 20260501232029 | 17 | 281 | 4.8 | 16.1 | 0.97 | 3.94 | 3.94 | 95 | 1008.6 |
| 20260501231536 | 17 | 322 | 6.4 | 11.3 | 0.89 | 3.86 | 3.86 | 95 | 1008.1 |
| 20260501231530 | 17 | 294 | 6.4 | 16.1 | 0.97 | 3.94 | 3.94 | 95 | 1008.5 |
| 20260501231133 | 17 | 319 | 6.4 | 12.9 | 0.94 | 3.91 | 3.91 | 95 | 1008.2 |
| 20260501230648 | 17 | 313 | 6.4 | 11.3 | 0.81 | 3.78 | 3.78 | 94 | 1007.9 |
| 20260501225527 | 17 | 276 | 4.8 | 11.3 | 0.79 | 3.76 | 3.76 | 95 | 1008.2 |
| 20260501225029 | 17 | 323 | 4.8 | 9.7 | 0.76 | 3.73 | 3.73 | 94 | 1008.2 |
| 20260501224527 | 17 | 40 | 4.8 | 9.7 | 0.69 | 3.66 | 3.68 | 94 | 1007.9 |
| 20260501224029 | 17 | 288 | 4.8 | 16.1 | 0.66 | 3.63 | 3.63 | 94 | 1007.8 |
| 20260501223528 | 18 | 303 | 6.4 | 22.5 | 0.48 | 3.45 | 3.48 | 94 | 1008.4 |
| 20260501223014 | 18 | 10 | 6.4 | 22.5 | 0.25 | 3.23 | 3.23 | 93 | 1007.4 |
| 20260501222514 | 18 | 294 | 6.4 | 19.3 | 0.00 | 2.97 | 2.97 | 94 | 1008.2 |
| 20260501222016 | 18 | 286 | 4.8 | 16.1 | 0.03 | 2.97 | 2.97 | 94 | 1007.5 |
| 20260501221516 | 18 | 355 | 6.4 | 16.1 | 0.05 | 2.97 | 2.97 | 94 | 1006.1 |
| 20260501221013 | 18 | 94 | 8.0 | 22.5 | 0.05 | 2.97 | 2.97 | 94 | 1005.4 |
| 20260501220513 | 18 | 92 | 6.4 | 22.5 | 0.05 | 2.97 | 2.97 | 94 | 1005.4 |
| 20260501220017 | 18 | 80 | 4.8 | 14.5 | 0.05 | 2.97 | 2.97 | 93 | 1005.6 |
| 20260501220013 | 18 | 65 | 4.8 | 19.3 | 0.05 | 2.97 | 2.97 | 94 | 1005.5 |
| 20260501215010 | 18 | 34 | 4.8 | 16.1 | 0.05 | 2.97 | 2.97 | 93 | 1005.8 |
| 20260501214512 | 18 | 44 | 4.8 | 16.1 | 0.05 | 2.97 | 2.97 | 94 | 1006.2 |
| 20260501214508 | 18 | 61 | 4.8 | 16.1 | 0.05 | 2.97 | 2.97 | 94 | 1006.1 |
| 20260501213507 | 18 | 56 | 4.8 | 16.1 | 0.05 | 2.97 | 2.97 | 94 | 1006.1 |
| 20260501213007 | 18 | 13 | 6.4 | 11.3 | 0.08 | 2.97 | 2.97 | 94 | 1006.1 |
| 20260501212509 | 18 | 69 | 4.8 | 11.3 | 0.08 | 2.97 | 2.97 | 94 | 1006.5 |
| 20260501212008 | 18 | 343 | 4.8 | 9.7 | 0.05 | 2.95 | 2.95 | 94 | 1006.3 |
| 20260501211510 | 18 | 355 | 4.8 | 9.7 | 0.03 | 2.92 | 2.92 | 93 | 1006.3 |
| 20260501211505 | 18 | 5 | 4.8 | 9.7 | 0.03 | 2.92 | 2.92 | 94 | 1006.3 |
| 20260501210508 | 18 | 33 | 4.8 | 12.9 | 0.03 | 2.92 | 2.92 | 94 | 1006.3 |
| 20260501210504 | 18 | 55 | 4.8 | 8.0 | 0.03 | 2.92 | 2.92 | 94 | 1006.2 |
| 20260501205452 | 18 | 347 | 4.8 | 12.9 | 0.03 | 2.92 | 2.92 | 94 | 1006.3 |
| 20260501204953 | 18 | 50 | 4.8 | 11.3 | 0.03 | 2.92 | 2.92 | 95 | 1006.4 |
| 20260501204454 | 18 | 355 | 4.8 | 11.3 | 0.03 | 2.92 | 2.92 | 95 | 1006.4 |
| 20260501203951 | 18 | 59 | 6.4 | 17.7 | 0.03 | 2.92 | 2.92 | 95 | 1006.5 |
| 20260501203449 | 18 | 355 | 8.0 | 17.7 | 0.03 | 2.92 | 2.92 | 95 | 1006.5 |
| 20260501202950 | 18 | 347 | 8.0 | 16.1 | 0.00 | 2.90 | 2.90 | 95 | 1006.4 |
| 20260501202446 | 18 | 0 | 6.4 | 17.7 | 0.03 | 2.90 | 2.90 | 95 | 1006.3 |
| 20260501201947 | 18 | 350 | 4.8 | 17.7 | 0.05 | 2.90 | 2.90 | 96 | 1006.2 |
| 20260501201446 | 19 | 325 | 4.8 | 12.9 | 0.10 | 2.90 | 2.90 | 96 | 1006.2 |
| 20260501200946 | 18 | 355 | 4.8 | 9.7 | 0.43 | 2.90 | 2.90 | 96 | 1006.2 |
| 20260501200446 | 18 | 32 | 4.8 | 14.5 | 1.37 | 2.90 | 2.90 | 96 | 1006.1 |
| 20260501195947 | 18 | 331 | 4.8 | 14.5 | 2.64 | 2.90 | 2.90 | 95 | 1006.3 |
| 20260501195452 | 18 | 322 | 4.8 | 16.1 | 2.67 | 2.90 | 2.90 | 96 | 1006.2 |
| 20260501195446 | 18 | 318 | 4.8 | 14.5 | 2.67 | 2.90 | 2.90 | 95 | 1006.3 |
| 20260501194454 | 18 | 318 | 4.8 | 14.5 | 2.67 | 2.90 | 2.90 | 96 | 1006.5 |
| 20260501194447 | 18 | 265 | 4.8 | 16.1 | 2.67 | 2.90 | 2.90 | 96 | 1006.8 |
| 20260501193946 | 18 | 328 | 4.8 | 14.5 | 2.67 | 2.90 | 2.90 | 95 | 1007.1 |
| 20260501193549 | 18 | 344 | 4.8 | 14.5 | 2.67 | 2.90 | 2.90 | 95 | 1007.0 |
| 20260501192443 | 18 | 331 | 6.4 | 17.7 | 2.64 | 2.87 | 2.87 | 95 | 1006.9 |
| 20260501191942 | 18 | 65 | 8.0 | 24.1 | 2.62 | 2.84 | 2.87 | 95 | 1005.7 |
| 20260501191443 | 18 | 346 | 9.7 | 32.2 | 2.59 | 2.79 | 2.82 | 95 | 1006.7 |
| 20260501190943 | 18 | 69 | 11.3 | 32.2 | 2.26 | 2.46 | 2.46 | 95 | 1005.5 |
| 20260501190442 | 18 | 0 | 9.7 | 27.4 | 0.91 | 1.12 | 1.35 | 94 | 1009.3 |
| 20260501185938 | 18 | 305 | 8.0 | 27.4 | 0.05 | 0.25 | 0.28 | 95 | 1007.5 |
| 20260501185438 | 18 | 275 | 8.0 | 22.5 | 0.03 | 0.23 | 0.23 | 95 | 1004.9 |
| 20260501184938 | 18 | 55 | 11.3 | 25.7 | 0.03 | 0.23 | 0.23 | 95 | 1003.1 |
| 20260501184438 | 18 | 58 | 12.9 | 25.7 | 0.03 | 0.23 | 0.23 | 95 | 1002.7 |
| 20260501183936 | 18 | 74 | 12.9 | 24.1 | 0.05 | 0.23 | 0.23 | 95 | 1003.6 |
| 20260501183437 | 18 | 53 | 9.7 | 24.1 | 0.08 | 0.23 | 0.23 | 95 | 1004.1 |
| 20260501182937 | 18 | 58 | 9.7 | 20.9 | 0.10 | 0.23 | 0.23 | 95 | 1004.8 |
| 20260501182430 | 18 | 58 | 9.7 | 20.9 | 0.15 | 0.23 | 0.23 | 95 | 1005.0 |
| 20260501181930 | 18 | 71 | 8.0 | 17.7 | 0.18 | 0.23 | 0.23 | 95 | 1005.0 |
| 20260501181428 | 18 | 53 | 8.0 | 19.3 | 0.15 | 0.20 | 0.20 | 95 | 1005.7 |
| 20260501180927 | 18 | 59 | 8.0 | 19.3 | 0.18 | 0.20 | 0.20 | 95 | 1006.2 |
| 20260501180420 | 18 | 56 | 4.8 | 17.7 | 0.20 | 0.20 | 0.20 | 95 | 1006.4 |
| 20260501175919 | 18 | 51 | 4.8 | 17.7 | 0.20 | 0.20 | 0.20 | 95 | 1006.6 |
| 20260501175420 | 18 | 49 | 4.8 | 17.7 | 0.20 | 0.20 | 0.20 | 95 | 1006.4 |
| 20260501174918 | 18 | 84 | 8.0 | 25.7 | 0.20 | 0.20 | 0.20 | 94 | 1006.4 |
| 20260501174425 | 18 | 60 | 9.7 | 24.1 | 0.18 | 0.18 | 0.18 | 95 | 1005.6 |
| 20260501174419 | 18 | 69 | 12.9 | 25.7 | 0.20 | 0.20 | 0.20 | 95 | 1006.0 |
| 20260501173420 | 18 | 5 | 4.8 | 9.7 | 0.13 | 0.13 | 0.13 | 94 | 1007.1 |
| 20260501173416 | 18 | 51 | 4.8 | 22.5 | 0.15 | 0.15 | 0.18 | 94 | 1006.4 |
| 20260501172413 | 18 | 34 | 4.8 | 14.5 | 0.05 | 0.05 | 0.05 | 94 | 1006.8 |
| 20260501172407 | 18 | 15 | 3.2 | 8.0 | 0.08 | 0.08 | 0.08 | 94 | 1007.1 |
| 20260501171403 | 18 | 53 | 6.4 | 16.1 | 0.05 | 0.05 | 0.05 | 94 | 1006.7 |
| 20260501170858 | 18 | 71 | 6.4 | 17.7 | 0.03 | 0.03 | 0.03 | 94 | 1006.6 |
| 20260501170405 | 18 | 69 | 8.0 | 25.7 | 0.00 | 0.00 | 0.00 | 94 | 1007.1 |
| 20260501170358 | 18 | 73 | 6.4 | 19.3 | 0.00 | 0.00 | 0.00 | 94 | 1006.5 |
| 20260501165856 | 18 | 69 | 6.4 | 19.3 | 0.00 | 0.00 | 0.00 | 94 | 1006.7 |
| 20260501165342 | 18 | 57 | 8.0 | 25.7 | 0.00 | 0.00 | 0.00 | 94 | 1006.9 |
| 20260501164340 | 18 | 32 | 4.8 | 16.1 | 0.00 | 0.00 | 0.00 | 94 | 1007.1 |
| 20260501163833 | 18 | 59 | 4.8 | 16.1 | 0.00 | 0.00 | 0.00 | 94 | 1007.3 |
| 20260501163333 | 18 | 15 | 3.2 | 12.9 | 0.00 | 0.00 | 0.00 | 94 | 1007.6 |
| 20260501162834 | 18 | 43 | 4.8 | 14.5 | 0.00 | 0.00 | 0.00 | 94 | 1007.5 |
| 20260501162331 | 18 | 52 | 3.2 | 14.5 | 0.00 | 0.00 | 0.00 | 94 | 1007.5 |
| 20260501161829 | 18 | 41 | 3.2 | 9.7 | 0.00 | 0.00 | 0.00 | 94 | 1007.5 |
| 20260501161325 | 18 | 49 | 3.2 | 9.7 | 0.00 | 0.00 | 0.00 | 94 | 1007.9 |
| 20260501160824 | 18 | 61 | 3.2 | 9.7 | 0.00 | 0.00 | 0.00 | 94 | 1008.0 |
| 20260501160320 | 18 | 14 | 3.2 | 9.7 | 0.00 | 0.00 | 0.00 | 93 | 1008.0 |
| 20260501155817 | 18 | 32 | 3.2 | 9.7 | 0.00 | 0.00 | 0.00 | 93 | 1008.1 |
| 20260501155314 | 18 | 5 | 4.8 | 9.7 | 0.00 | 0.00 | 0.00 | 93 | 1008.0 |
| 20260501154809 | 18 | 49 | 4.8 | 12.9 | 0.00 | 0.00 | 0.00 | 93 | 1008.1 |
| 20260501154309 | 18 | 0 | 4.8 | 14.5 | 0.00 | 0.00 | 0.00 | 93 | 1008.0 |
| 20260501153800 | 18 | 350 | 6.4 | 14.5 | 0.00 | 0.00 | 0.00 | 93 | 1008.3 |
| 20260501153259 | 18 | 355 | 6.4 | 16.1 | 0.00 | 0.00 | 0.00 | 93 | 1008.5 |
| 20260501152758 | 18 | 355 | 6.4 | 16.1 | 0.00 | 0.00 | 0.00 | 92 | 1008.5 |
| 20260501152300 | 18 | 355 | 6.4 | 14.5 | 0.00 | 0.00 | 0.00 | 92 | 1008.6 |
| 20260501151805 | 19 | 349 | 4.8 | 11.3 | 0.00 | 0.00 | 0.00 | 92 | 1008.4 |
| 20260501151758 | 19 | 348 | 6.4 | 14.5 | 0.00 | 0.00 | 0.00 | 92 | 1008.7 |
| 20260501151256 | 19 | 323 | 4.8 | 9.7 | 0.00 | 0.00 | 0.00 | 92 | 1008.6 |
| 20260501150256 | 19 | 355 | 4.8 | 11.3 | 0.00 | 0.00 | 0.00 | 92 | 1007.9 |
| 20260501150251 | 19 | 29 | 4.8 | 17.7 | 0.00 | 0.00 | 0.00 | 92 | 1007.8 |
| 20260501145744 | 19 | 83 | 4.8 | 11.3 | 0.00 | 0.00 | 0.00 | 92 | 1007.8 |
| 20260501145400 | 19 | 355 | 4.8 | 17.7 | 0.00 | 0.00 | 0.00 | 92 | 1007.8 |